CZ-2C DEB

Satellite information

Favourite Embed

Satellite Type and Status

DEBRISIN ORBIT

Key statistics

Satellite CZ-2C DEB at a glance.

Uptime

7594

Days in orbit

Revolutions

≈ 14.5

Per day

Orbit

SSO

Sun Synchronous Orbit

Inclination

98.6

Latest

Satellite identification and parameters

Extended collection of information and parameters for CZ-2C DEB.

Object identification

Identified? True

Debris? True

Object name: CZ-2C DEB

International designator: 2004-046D

Object number (NORAD): 28482

Object ID (CCSDS): 28482

Country: PEOPLES REPUBLIC OF CHINA (PRC)

Current information (Y/N): Y

RCS size: SMALL

Orbital parameters

Period: 99.385 minutes

Inclination: 98.6463 deg

SMA: 7107.354 km

Apoapsis: 803.807 km

Periapsis: 654.63 km

RAAN: 320.4461 deg

Eccentricy: 0.01049455

Argument of periapsis: 354.1959 deg

Mean anomaly: 186.9473 deg

Mean motion: 14.48908167 rev/day

Mean motion (dot): 0.00006128 rev/day2

B* drag term: 0.0015213634 1/REarth

Two-line elements (TLE)

Creation date: Sept. 2, 2025, 3:25 a.m.

Reference frame: TEME

Reference center: EARTH

Epoch: Sept. 1, 2025, 11:17 p.m. UTC

TLE line 0: 0 CZ-2C DEB

TLE line 1: 1 28482U 04046D 25244.97017536 .00006128 00000-0 15214-2 0 9995

TLE line 2: 2 28482 98.6463 320.4461 0104945 354.1959 186.9473 14.48908167 86843

Live tracking on map

Real-time ground track for satellite CZ-2C DEB.

In-orbit conjunctions

A list of the most updated potential collisions computed for object CZ-2C DEB.

Target Orbit TCA Probability of collision Miss distance Type
SL-8 R/B LEO 2024-12-24 08:16:01 0.0005332773 67.0 (m) ROCKET BODY

Associated space launch

Remote Sensing Technology..

CZ-2C DEB was lifted into orbit during the mission ‘Long March 2C | Shiyan Weixing 2’, on board a Long March 2 space rocket.

The launch took place on Nov. 18, 2004, 10:45 a.m. from Launch Complex 3 (LC-3/LA-1).

For more information about the launch, click the button.

Launch to space Long March 2C | Shiyan Weixing 2
Long March 2C | Shiyan Weixing 2

Agency: N/A

Status: Launch Successful

Launch date: Nov. 18, 2004, 10:45 a.m. UTC

Rocket: Long March 2

Launch pad: Launch Complex 3 (LC-3/LA-1)

Location: Xichang Satellite Launch Center, People's Republic of China

...

Latest news about this satellite

There are no fresh news available about this satellite. Check back as we update our databases every day.


Newsletter sign-up

Weekly statistics, charts and insights to help you stay on top of the space industry.